TimeCST,TemperatureF,Dew PointF,Humidity,Sea Level PressureIn,VisibilityMPH,Wind Direction,Wind SpeedMPH,Gust SpeedMPH,PrecipitationIn,Events,Conditions,WindDirDegrees,DateUTC
12:53 AM,19.0,9.0,65,30.14,10.0,Calm,Calm,-,N/A,,Clear,0,2012-12-11 06:53:00
1:53 AM,16.0,9.0,74,30.13,10.0,Calm,Calm,-,N/A,,Clear,0,2012-12-11 07:53:00
2:53 AM,15.1,10.0,80,30.12,10.0,Calm,Calm,-,N/A,,Clear,0,2012-12-11 08:53:00
3:53 AM,15.1,8.1,74,30.12,10.0,Calm,Calm,-,N/A,,Clear,0,2012-12-11 09:53:00
4:53 AM,12.9,8.1,81,30.12,10.0,Calm,Calm,-,N/A,,Clear,0,2012-12-11 10:53:00
5:53 AM,15.1,8.1,74,30.13,10.0,Calm,Calm,-,N/A,,Clear,0,2012-12-11 11:53:00
6:53 AM,14.0,8.1,77,30.15,10.0,SE,3.5,-,N/A,,Clear,140,2012-12-11 12:53:00
7:53 AM,14.0,8.1,77,30.18,10.0,Calm,Calm,-,N/A,,Clear,0,2012-12-11 13:53:00
8:53 AM,23.0,14.0,68,30.21,10.0,Calm,Calm,-,N/A,,Clear,0,2012-12-11 14:53:00
9:53 AM,32.0,19.0,59,30.22,10.0,Variable,3.5,-,N/A,,Clear,0,2012-12-11 15:53:00
10:59 AM,39.2,19.4,45,30.19,10.0,South,6.9,-,N/A,,Clear,190,2012-12-11 16:59:00
12:11 PM,44.6,19.4,37,30.18,10.0,Variable,6.9,-,N/A,,Clear,0,2012-12-11 18:11:00
12:53 PM,45.0,18.0,34,-9999,10.0,SSW,3.5,-,N/A,,Clear,210,2012-12-11 18:53:00
1:53 PM,46.9,17.1,30,30.16,10.0,SSE,6.9,-,N/A,,Clear,160,2012-12-11 19:53:00
2:53 PM,48.0,15.1,27,30.14,10.0,SSE,3.5,-,N/A,,Clear,160,2012-12-11 20:53:00
3:53 PM,48.0,15.1,27,30.14,10.0,South,8.1,-,N/A,,Clear,170,2012-12-11 21:53:00
4:53 PM,46.0,15.1,29,30.15,10.0,South,4.6,-,N/A,,Clear,170,2012-12-11 22:53:00
5:53 PM,39.9,14.0,35,30.17,10.0,SSE,4.6,-,N/A,,Clear,160,2012-12-11 23:53:00
6:53 PM,36.0,12.0,37,30.19,10.0,Calm,Calm,-,N/A,,Clear,0,2012-12-12 00:53:00
7:53 PM,28.9,12.9,51,30.22,10.0,Calm,Calm,-,N/A,,Clear,0,2012-12-12 01:53:00
8:53 PM,26.1,14.0,60,30.22,10.0,Calm,Calm,-,N/A,,Clear,0,2012-12-12 02:53:00
9:53 PM,24.1,15.1,69,30.23,10.0,Calm,Calm,-,N/A,,Clear,0,2012-12-12 03:53:00
10:53 PM,21.9,14.0,72,30.24,10.0,Calm,Calm,-,N/A,,Clear,0,2012-12-12 04:53:00
11:53 PM,21.0,12.0,68,30.20,10.0,Calm,Calm,-,N/A,,Clear,0,2012-12-12 05:53:00